NOAA 16 DEB, 41212

Orbit data source: Space-Track

NOAA 16 DEB, 41212 is space debris in SSO originally from a launch on Thu, 21 Sep 2000 UTC launched from the Air Force Western Test Range (AFWTR). Debris objects in space refer to the collection of defunct objects orbiting the Earth. Examples of debris include non-operational satellites, rocket bodies, and fragments generated from explosions, collisions, or faulty payload assembly.

Loading next visibility...
Identifier
41212, 2000-055DR
Orbit
SSO
Country
Flag of USUS
Related business
Manufacturer
Unknown
Mission
Spacecraft
Bus & Motor
Unknown
Mass
Unknown
Launch date (UTC)
2000-09-21 (26 years ago)
Launch vehicle
Unknown
Launch site
Air Force Western Test Range (AFWTR)
Object type
Payload
Rocket body
Debris
Shape & HBR
Unknown shape, 0.1 m
Radar Cross Section
Medium (>0.1 m² and <1 m²)

Expand to show TLE details & history
Last TLE update: 20 hours ago

TLE from 20 hours ago
0 NOAA 16 DEB
1 41212U 00055DR  26208.37776414  .00004761  00000-0  15580-2 0  9996
2 41212  98.9499 359.6201 0015850 183.1666 176.9422 14.38900375550995
Epoch: 2026-07-27T09:03Z
TLE epoch observation values (Epoch: 2026-07-27T09:03:58.821Z)
Latitude
-0.00007°
Longitude
-81.43718°
Altitude
776.37 km
Speed
7.46 km/s
True Right ascension
23h 58m 28s
True Declination
0° 00' 00"
Sunlit
Object was in full shadow at epoch
Visualization orbit readout
Latitude
Unknown
Longitude
Unknown
Altitude
Unknown
Speed
Unknown
Apparent Right ascension
Unknown
Apparent Declination
Unknown
Sunlit
N/A
Visualization observer readout
Local Sidereal Time
18:25:39
Azimuth
Unknown
Elevation
Unknown
Doppler factor
Unknown
Orbital elements
Apogee altitude
770.592 km
Perigee altitude
747.966 km
Semi-major axis
7,137.416 km
Eccentricity
0.00159
Inclination
98.9499°
RAAN
359.6201°
Arg. of periapsis
183.1666°
True anomaly
176.95187°
Mean anomaly
176.9422°
Eccentric anomaly
176.94704°
Mean motion
3.59941 °/min
Orbital period
100.02 mins
BSTAR
0.001558
Loading maneuver chart data...
Computing Atmospheric mass density...
Loading historical data...
Loading historical data...
Loading historical data...
Loading historical data...
Loading historical data...
Loading historical data...
Loading historical data...

Documentation

Showing up to 5 results
|